, AK

(GMT )
Denali Park

Weather History for PAIN - May, 2019

Change the Weather History Date:

Saturday, May 18, 2019

  Actual Average Record
Temperature  
Mean Temperature 42 °F -  
Max Temperature 54 °F 54 °F 71 °F (1984)
Min Temperature 30 °F 30 °F 17 °F (2013)
Degree Days  
Heating Degree Days 24    
Moisture  
Dew Point 35 °F    
Average Humidity 73    
Maximum Humidity 89    
Minimum Humidity 50    
Precipitation  
Precipitation 0.09 in - - ()
Sea Level Pressure  
Sea Level Pressure 29.81 in    
Wind  
Wind Speed 2 mph (WSW)    
Max Wind Speed 10 mph    
Max Gust Speed -    
Visibility 10 miles    
Events Rain    
Averages and records for this station are not official NWS values.
T = Trace of Precipitation, MM = Missing Value Source: NWS Daily Summary

Daily Weather History Graph

Daily Weather History Graph

Search for Another Location

Airport or City:

Astronomy

May. 18, 2019 Rise Set
Actual Time 4:36 AM AKDT 11:10 PM AKDT
Civil Twilight 2:48 AM AKDT 1:03 AM AKDT
Nautical Twilight Sun does not set Sun does not set
Astronomical Twilight Sun does not set Sun does not set
Moon 10:54 PM AKDT 5:31 AM AKDT
Length of Visible Light 22h 14m
Length of Day
18h 34m
Full, 100% of the Moon is Illuminated
May 18
Full
May 18
Full
May 26
Last Quarter
Jun 3
New
Jun 9
First Quarter

Hourly Weather History & Observations

Time (AKDT) Temp. Windchill Dew Point Humidity Pressure Visibility Wind Dir Wind Speed Gust Speed Precip Events Conditions
12:56 AM 41.0 °F - 30.9 °F 67% 29.73 in 10.0 mi Calm Calm - N/A   Scattered Clouds
1:56 AM 37.0 °F 34.5 °F 28.9 °F 73% 29.75 in 10.0 mi WSW 3.5 mph - N/A   Clear
2:56 AM 35.1 °F 31.0 °F 28.9 °F 78% 29.77 in 10.0 mi SW 4.6 mph - N/A   Partly Cloudy
3:56 AM 34.0 °F 29.8 °F 28.0 °F 79% 29.78 in 10.0 mi SW 4.6 mph - N/A   Clear
4:56 AM 32.0 °F - 28.0 °F 85% 29.80 in 10.0 mi Calm Calm - N/A   Clear
5:56 AM 30.9 °F - 28.0 °F 89% 29.82 in 10.0 mi Calm Calm - N/A   Clear
6:56 AM 32.0 °F - 28.0 °F 85% 29.82 in 10.0 mi Calm Calm - N/A   Clear
7:56 AM 37.9 °F - 30.0 °F 73% 29.81 in 10.0 mi Calm Calm - N/A   Clear
8:56 AM 41.0 °F - 30.9 °F 67% 29.81 in 10.0 mi Calm Calm - N/A   Clear
9:56 AM 45.0 °F - 33.1 °F 63% 29.80 in 10.0 mi Calm Calm - N/A   Clear
10:56 AM 50.0 °F - 34.0 °F 54% 29.80 in 10.0 mi Variable 6.9 mph - N/A   Clear
11:56 AM 50.0 °F - 35.1 °F 57% 29.79 in 10.0 mi NNE 10.4 mph - N/A   Clear
12:56 PM 53.1 °F - 35.1 °F 50% 29.78 in 10.0 mi North 5.8 mph - N/A   Partly Cloudy
1:56 PM 53.1 °F - 35.1 °F 50% 29.79 in 10.0 mi NNE 9.2 mph - N/A   Clear
2:56 PM 53.1 °F - 36.0 °F 52% 29.80 in 10.0 mi NNW 4.6 mph - 0.00 in Rain Light Rain
3:56 PM 50.0 °F - 39.0 °F 66% 29.83 in 10.0 mi SSE 5.8 mph - 0.00 in   Overcast
4:27 PM 46.4 °F - 41.0 °F 81% 29.77 in 10.0 mi Calm Calm - 0.01 in Rain Rain
4:46 PM 46.4 °F 45.2 °F 41.0 °F 81% 29.78 in 10.0 mi SW 3.5 mph - 0.02 in Rain Light Rain
4:56 PM 46.0 °F - 41.0 °F 83% 29.86 in 10.0 mi Calm Calm - 0.03 in Rain Light Rain
5:56 PM 46.9 °F - 43.0 °F 86% 29.86 in 10.0 mi Calm Calm - 0.03 in Rain Light Rain
6:56 PM 46.9 °F - 43.0 °F 86% 29.86 in 10.0 mi South 3.5 mph - 0.03 in   Overcast
7:56 PM 48.0 °F - 39.9 °F 74% 29.85 in 10.0 mi Variable 3.5 mph - N/A   Overcast
8:56 PM 46.9 °F - 41.0 °F 80% 29.85 in 10.0 mi Calm Calm - N/A   Scattered Clouds
9:56 PM 46.0 °F - 39.9 °F 79% 29.85 in 10.0 mi Calm Calm - N/A   Overcast
10:56 PM 44.1 °F 42.5 °F 37.9 °F 79% 29.86 in 10.0 mi SW 3.5 mph - N/A   Mostly Cloudy
11:56 PM 39.0 °F 36.8 °F 36.0 °F 89% 29.86 in 10.0 mi WSW 3.5 mph - N/A   Clear